Tracking 17857 objects as of 30-September-2016
HD Live streaming from Space Station
objects crossing your sky now

SCOUT X-4 R/B

Track SCOUT X-4 R/B now!
10-day predictions


NORAD ID: 1739
Int'l Code: 1965-093B
Perigee: 668.6 km
Apogee: 789.0 km
Inclination: 59.7 °
Period: 99.2 minutes
Semi major axis: 7099 km
RCS: 0.5409 m2 (medium)
Launch date: November 19, 1965
Source: United States (US)
Launch site: WALLOPS ISLAND (WLPIS)

Note: This is a ROCKET BODY
Your satellite tracking list
Your tracking list is empty





NASA's NSSDC Master Catalog

Two Line Element Set (TLE):
1 01739U 65093B   16273.13587745 -.00000001  00000-0  38652-4 0  9992
2 01739  59.7042 249.8275 0084789 187.6170 172.3591 14.51217414675738
Source of the keplerian elements: AFSPC

N2YO: 542